Flag for Mauritania Weather past 2 weeks in Nouakchott, Mauritania

Now
88 °F

Partly sunny.


Feels Like: 100 °F
Forecast: 81 / 91 °F
Wind: 9 mph from Northwest

Location: Nouakchott Airport

Current Time: Sep 21, 2014 at 2:23:56 PM

Latest Report: Sep 21, 2014 at 2:00 PM


Visibility: 5 mi

Pressure: 29.89 "Hg

Humidity: 70%

Dew point: 77 °F

Location of NouakchottLocation

Historic Weather in Nouakchott — Graph

°F

Nouakchott temperature yesterday

Maximum temperature yesterday: 93 °F (at 1:30 PM)
Minimum temperature yesterday: 77 °F (at 5:00 AM)
Average temperature yesterday: 82 °F

Past Weeks' High & Low Weather Summary

 TemperatureHumidityPressure
High100 °F (Sep 7, 1:30 PM)94% (Sep 9, 6:30 AM)30.09 "Hg (Sep 9, 6:30 AM)
Low72 °F (Sep 12, 11:00 PM)37% (Sep 7, 1:30 PM)29.71 "Hg (Sep 6, 4:30 PM)
Average84 °F72%29.86 "Hg
* Reported Sep 6 1:00 PM — Sep 21 1:00 PM, Nouakchott, Weather by CustomWeather, © 2014

Note: Actual official high and low records may vary slightly from our data, if they occured in-between our weather recording intervals... More about our weather records

Advertising

Nouakchott weather history for previous 24 hours

 ConditionsComfort  
Time TempWeatherWind HumidityBarometerVisibility
1:00 PM
Sep 21
90 °FScattered clouds.3 mph59%29.92 "Hg5 mi
12:30 PM91 °FScattered clouds.3 mph56%29.92 "Hg5 mi
12:00 PM90 °FScattered clouds.6 mph59%29.95 "Hg5 mi
11:30 AM90 °FScattered clouds.6 mph63%29.95 "Hg5 mi
11:00 AM88 °FPassing clouds.2 mph62%29.95 "Hg5 mi
10:30 AM86 °FPassing clouds.3 mph70%29.95 "Hg5 mi
10:00 AM84 °FPassing clouds.3 mph79%29.95 "Hg5 mi
9:30 AM84 °FPassing clouds.5 mph79%29.95 "Hg5 mi
9:00 AM82 °FPassing clouds.5 mph84%29.95 "Hg5 mi
8:30 AM81 °FClear.5 mph84%29.92 "Hg5 mi
8:00 AM79 °FClear.5 mph89%29.92 "Hg5 mi
7:30 AM79 °FClear.3 mph89%29.92 "Hg5 mi
7:00 AM77 °FClear.2 mph94%29.92 "Hg5 mi
6:30 AM77 °FClear.1 mph94%29.89 "Hg5 mi
6:00 AM77 °FClear.3 mph94%29.89 "Hg5 mi
5:30 AM77 °FClear.3 mph94%29.89 "Hg5 mi
5:00 AM79 °FClear.No wind89%29.89 "Hg5 mi
4:30 AM79 °FClear.No wind89%29.89 "Hg5 mi
4:00 AM79 °FClear.1 mph89%29.89 "Hg5 mi
3:30 AM79 °FClear.No wind89%29.89 "Hg5 mi
3:00 AM79 °FClear.No wind84%29.89 "Hg5 mi
2:30 AM79 °FClear.3 mph89%29.89 "Hg5 mi
2:00 AM79 °FClear.No wind89%29.92 "Hg5 mi
1:30 AM79 °FClear.2 mph89%29.92 "Hg5 mi
1:00 AM79 °FLight rain. Clear.3 mph89%29.95 "Hg5 mi
12:30 AM79 °FLight rain. Clear.1 mph84%29.95 "Hg5 mi
12:00 AM79 °FLight rain. Clear.7 mph89%29.98 "Hg5 mi
11:30 PM
Sep 20
81 °FLight rain. Clear.8 mph84%29.98 "Hg5 mi
11:00 PM81 °FLight rain. Clear.9 mph84%29.95 "Hg5 mi
10:30 PM79 °FLight rain. Clear.5 mph89%29.95 "Hg5 mi
10:00 PM79 °FThunderstorms. Passing clouds.No wind89%29.95 "Hg5 mi
9:30 PM79 °FThunderstorms. Passing clouds.7 mph89%29.95 "Hg5 mi
8:30 PM84 °FThunderstorms. Passing clouds.6 mph79%29.95 "Hg5 mi
8:00 PM84 °FThunderstorms. Passing clouds.5 mph74%29.92 "Hg5 mi
7:30 PM84 °FLight rain. Passing clouds.6 mph74%29.86 "Hg5 mi
7:00 PM84 °FLight rain. Partly sunny.7 mph74%29.86 "Hg5 mi
6:30 PM84 °FScattered clouds.12 mph74%29.86 "Hg5 mi
6:00 PM86 °FScattered clouds.12 mph66%29.86 "Hg5 mi
Weather by CustomWeather, © 2014

See weather overviewHow to use our weather pages